Location: Poughquag
(41.6090°N, 73.6820°W)
Time: 00:04:04
(UTC-05:00)

Tiros 1 despin weight - Pass Details

Date: 14 December 2023
Orbit: 581 x 624 km, 48.2° (Epoch: 21 February)

Event Time Altitude Azimuth Distance (km) Brightness Sun altitude
Rises 19:04:25 0° 297° (WNW) 2,807 ? -28.9°
Reaches altitude 10° 19:06:42 10° 300° (WNW) 1,901 ? -29.3°
Enters shadow 19:08:48 27° 307° (NW) 1,118 ? -29.7°
